Temperature
18 18 18 18 18 18 18 18 17 17 17 16 16 16 15 15 14 14 14 13 13 13 13 13 13 13 13 13 13 13 13 13 13 14 14 15 15 15 15 15 15 15 15
18 18 18 18 18 18 18 17 17 17 16 16 15 15 14 14 13 13 13 13 12 12 12 12 12 13 13 13 13 13 13 13 13 13 13 14 15 15 15 15 15 15 15
19 18 18 18 18 18 18 17 17 16 16 15 15 14 14 13 13 13 12 12 12 12 12 12 12 12 12 12 12 12 12 12 12 12 12 12 13 13 14 14 14 14 14
19 19 19 18 18 18 17 17 16 16 16 15 14 14 13 13 12 12 12 11 11 11 11 11 11 12 12 12 12 12 12 12 12 12 12 12 12 12 13 14 14 14 14
19 19 19 19 18 18 17 17 16 16 15 15 14 13 13 12 12 12 11 11 11 11 11 11 11 11 11 11 11 12 11 11 11 11 11 12 12 12 12 12 13 14 14
19 19 19 19 18 18 17 17 16 16 15 14 14 13 12 12 12 11 11 11 11 11 11 10 10 10 11 11 11 11 11 11 11 11 11 11 11 11 11 11 12 13 14
19 19 19 19 18 18 17 17 16 15 15 14 13 12 12 11 11 11 11 10 10 10 10 10 10 10 10 10 10 10 11 11 11 11 11 11 11 11 11 11 11 12 13
19 19 19 19 18 18 17 16 15 15 14 13 12 12 11 11 11 11 10 10 10 10 10 10 10 9 9 9 10 10 10 10 10 10 10 10 11 11 10 11 11 11 12
19 19 19 19 18 17 17 16 15 14 13 12 12 12 11 11 11 11 10 10 10 10 9 9 9 9 9 9 9 9 9 9 9 10 10 10 10 10 10 10 10 10 10
19 19 19 18 17 17 16 15 14 13 13 12 12 11 11 11 10 10 10 10 10 9 9 9 9 9 9 9 9 9 9 9 9 9 9 10 10 10 10 10 10 10 10
20 19 19 18 17 16 15 15 14 13 12 12 11 11 11 10 10 10 10 10 9 9 9 9 9 9 9 8 8 8 8 8 8 9 9 9 9 9 10 10 10 10 10
20 19 18 17 17 16 15 14 13 13 12 12 11 11 11 10 10 10 10 9 9 9 9 8 8 8 8 8 8 8 8 8 8 8 8 8 9 9 9 9 10 10 10
19 18 18 17 16 15 15 14 13 12 12 11 11 11 10 10 10 10 9 9 9 9 9 8 8 8 8 8 8 8 8 8 8 8 8 8 8 8 9 9 9 10 10
19 18 17 17 16 15 14 13 13 12 12 11 11 10 10 10 10 9 9 9 9 8 8 8 8 8 8 8 8 8 8 8 8 8 8 8 8 8 8 8 9 9 9
19 18 17 17 16 15 14 13 12 12 11 11 10 10 10 10 9 9 9 9 9 8 8 8 8 8 8 8 8 8 8 8 8 8 8 8 8 8 8 8 8 9 9
19 18 17 16 15 14 13 13 12 11 11 11 10 10 10 10 9 9 9 9 9 8 8 8 8 8 8 8 8 8 8 8 8 8 8 8 7 7 7 8 8 8 9
19 18 17 16 15 14 13 13 12 11 11 10 10 10 9 9 9 9 9 9 9 8 8 8 8 8 8 8 8 8 7 7 8 8 8 8 7 7 7 7 8 8 8
19 18 17 16 15 14 13 12 12 11 11 10 10 10 9 9 9 9 9 9 8 8 8 8 8 8 8 8 8 8 7 7 7 7 7 7 7 7 7 7 7 8 8
18 17 16 15 15 14 13 12 12 11 10 10 10 9 9 9 9 9 9 8 8 8 8 8 8 8 8 8 8 7 7 7 7 7 7 7 7 7 7 6 7 7 8
18 17 16 15 15 14 13 12 12 11 11 10 10 9 9 9 9 9 9 8 8 8 8 8 8 8 8 8 7 7 7 7 7 7 7 7 6 7 6 6 6 7 7
18 17 16 16 15 14 13 13 12 11 11 10 10 9 9 9 9 8 8 8 8 8 8 8 8 8 8 7 7 7 6 6 6 6 6 6 6 6 6 6 6 7 7
18 17 16 16 15 14 13 13 12 11 11 10 10 9 9 9 8 8 8 8 8 8 8 8 8 8 7 7 7 7 6 6 6 6 6 6 6 6 6 6 6 7 7
18 17 17 16 15 14 13 13 12 11 11 10 10 9 9 9 8 8 8 8 8 8 8 8 8 8 7 7 7 6 6 6 6 6 6 6 6 6 6 6 6 6 6
19 18 17 16 15 14 13 13 12 11 11 10 10 9 9 9 9 8 8 8 8 8 8 8 7 7 7 7 7 6 6 6 6 6 6 6 6 6 6 6 6 6 6
19 18 17 16 15 14 14 13 12 11 11 10 10 9 9 9 9 9 8 8 8 8 8 8 7 7 7 7 7 6 6 6 6 6 6 6 6 6 6 6 6 6 6
19 18 17 16 15 14 14 13 12 11 11 11 10 10 9 9 9 8 9 9 8 8 8 8 7 7 7 7 7 6 6 6 6 6 6 6 6 6 6 6 6 6 7
Wind_Speed
6 6 6 6 5 5 4 4 3 2 2 1 1 1 2 2 3 3 5 6 6 6 4 3 3 2 2 3 3 2 3 2 2 3 5 5 7 8 8 8 9 11 13
5 6 7 7 7 6 6 5 4 3 2 1 1 1 0 2 2 3 5 6 6 7 5 3 4 3 3 4 3 1 2 2 1 2 3 4 4 3 6 7 8 9 8
9 8 8 8 7 8 8 6 5 4 3 2 1 2 2 3 3 3 3 5 7 7 6 5 4 4 3 3 4 2 2 2 2 1 2 3 3 5 3 4 5 6 7
8 8 8 8 9 9 6 6 5 5 4 3 2 1 1 3 4 3 4 6 6 6 6 5 4 3 2 3 4 3 2 2 2 2 2 3 4 4 5 3 3 4 7
8 8 9 9 7 6 5 5 5 4 3 3 3 3 3 4 3 4 6 6 5 5 5 5 3 3 2 3 4 3 3 2 3 2 2 2 3 4 4 5 4 4 4
6 6 5 5 4 4 4 4 4 3 3 3 3 4 5 5 5 6 5 5 4 5 5 5 3 3 3 3 3 3 4 4 4 3 3 2 2 2 3 4 6 6 5
5 5 5 5 5 5 4 3 4 3 3 3 4 5 6 6 6 6 5 5 4 4 6 5 4 4 4 4 4 3 4 4 4 5 4 4 4 3 3 4 5 5 4
5 6 6 6 6 6 5 4 4 4 4 4 5 5 5 5 5 6 5 6 5 6 7 6 6 5 5 5 4 3 4 4 4 5 5 4 5 4 4 3 3 5 4
5 6 6 6 5 5 4 4 4 4 5 5 6 6 6 6 6 6 5 5 6 6 7 6 6 6 6 6 5 4 5 5 5 6 6 5 5 5 5 5 4 3 4
6 6 5 4 3 3 3 3 4 5 6 6 6 5 6 6 6 6 7 7 7 6 7 7 7 7 7 6 5 5 6 6 6 5 6 6 5 5 5 5 5 5 5
7 5 4 2 2 2 3 4 4 5 6 6 6 6 6 6 6 6 7 7 7 7 8 8 8 8 8 7 6 7 7 7 7 6 6 7 7 6 5 5 5 5 5
5 3 3 2 2 3 4 5 5 6 7 6 6 6 6 6 6 7 8 7 8 8 8 8 8 9 9 8 8 9 8 8 8 8 8 9 7 7 6 5 6 6 6
5 3 2 3 4 5 5 6 6 7 7 6 6 6 6 7 7 8 8 8 8 9 9 8 9 10 10 9 9 9 9 9 9 9 9 9 8 8 7 7 7 6 6
5 5 4 5 6 6 6 6 7 7 6 5 6 6 7 7 7 8 8 8 8 9 9 9 10 10 10 11 11 10 10 10 10 9 10 10 10 10 9 8 8 8 7
7 8 7 6 6 6 6 6 7 7 5 5 6 7 7 7 7 8 8 8 8 9 9 10 10 10 9 10 10 10 10 10 10 10 10 10 12 13 11 8 8 8 7
9 9 8 7 7 7 7 7 7 7 5 6 7 7 7 7 8 8 8 9 9 9 9 9 10 10 9 11 14 13 11 11 11 12 11 10 12 14 15 16 14 12 10
10 9 9 8 8 8 7 7 7 6 5 6 7 7 7 8 8 9 9 10 9 9 10 10 10 11 12 15 16 16 12 11 12 12 11 10 10 12 11 12 14 14 17
10 10 9 8 7 6 6 6 6 6 6 7 7 7 7 8 9 9 10 10 9 9 9 10 10 10 12 14 15 15 11 11 12 12 12 12 12 12 11 11 11 11 11
10 9 9 8 6 7 7 5 6 6 6 7 7 8 7 9 9 10 10 9 9 9 9 9 10 11 12 13 14 12 8 9 12 12 12 12 13 14 14 13 12 11 10
8 8 7 6 7 7 5 5 7 6 8 8 8 7 7 8 10 10 10 9 8 10 10 10 10 10 11 13 13 11 6 8 9 9 10 13 14 14 14 13 12 12 11
10 9 7 7 8 6 5 6 7 8 8 7 7 7 8 8 9 9 8 9 9 9 9 10 10 9 10 11 12 10 5 7 8 8 8 8 12 15 15 14 12 13 11
10 9 8 8 7 6 6 8 9 9 6 6 7 8 8 8 8 8 9 8 8 9 9 9 10 8 7 8 9 10 8 8 7 8 7 8 11 12 12 11 13 14 11
10 9 9 9 7 6 7 9 9 7 6 6 7 8 8 8 8 8 9 8 7 7 7 7 8 8 7 6 9 9 9 9 7 7 9 10 11 10 8 11 13 11 8
10 8 9 9 8 8 8 10 8 6 5 7 7 7 8 9 8 7 6 7 7 7 7 7 8 8 7 6 4 4 4 5 5 5 6 8 8 6 6 6 8 8 8
8 8 9 10 11 8 8 9 7 6 6 7 7 7 7 8 8 8 7 8 8 8 8 8 8 8 8 7 6 5 5 4 4 5 4 3 3 3 3 4 5 6 7
8 8 10 10 10 8 9 8 6 6 6 6 6 6 6 7 7 8 9 9 10 12 13 13 11 9 11 12 11 10 10 9 7 4 4 4 4 4 4 4 5 5 6
Wind_Direction
203 192 188 189 190 200 203 204 189 183 143 91 75 39 344 335 341 341 345 345 346 346 335 317 314 314 291 287 297 295 299 292 300 303 296 280 256 247 245 241 237 232 228
210 208 205 204 206 210 214 215 213 206 197 162 151 161 255 302 294 310 324 335 343 342 336 324 307 299 285 290 292 279 301 299 318 307 309 314 313 275 248 237 237 237 229
213 213 211 216 218 221 218 216 215 213 211 186 115 50 18 349 335 325 320 324 330 328 323 314 303 293 262 264 268 256 240 276 302 267 282 306 309 320 289 251 245 242 233
222 217 214 219 222 226 215 208 209 212 213 182 166 193 246 274 272 282 292 304 312 316 316 312 308 297 273 260 263 244 229 229 269 292 256 252 268 290 310 303 276 263 249
224 221 218 218 220 213 201 202 202 212 212 195 193 212 245 253 276 290 293 298 303 306 307 307 302 302 289 274 266 260 236 223 233 248 269 274 273 258 282 301 319 311 269
224 215 208 196 196 180 176 178 187 219 225 218 219 224 250 268 284 289 291 295 300 302 305 303 294 293 291 290 281 261 247 234 236 243 242 245 262 282 286 295 309 308 296
211 197 187 183 181 177 178 177 186 227 242 243 249 246 250 256 259 269 274 282 290 292 295 303 293 287 283 287 285 275 265 247 240 243 243 241 245 251 262 280 294 300 299
203 194 189 183 184 184 177 175 193 231 250 254 263 264 257 250 253 257 258 264 266 273 280 285 282 278 278 283 280 275 272 259 250 253 247 247 251 247 246 256 289 307 303
197 190 182 180 184 184 187 195 208 239 257 260 266 269 263 253 258 265 263 265 266 274 275 279 282 280 276 271 269 264 269 270 263 260 255 250 254 249 247 246 246 267 296
191 187 183 186 194 202 213 221 227 243 259 264 262 264 262 262 263 268 271 271 272 272 280 282 281 281 279 273 265 263 263 264 265 262 260 256 255 252 246 243 242 237 253
197 198 200 204 215 234 242 252 258 262 270 270 269 272 275 276 277 273 272 274 277 278 277 279 281 281 281 276 266 263 261 258 263 265 261 262 259 255 250 242 240 240 238
196 196 202 211 236 253 261 265 269 270 269 269 271 272 276 281 282 279 278 278 279 281 278 280 281 281 280 275 269 269 268 257 258 260 259 263 264 255 251 242 240 239 235
189 188 206 230 246 257 264 270 273 273 276 276 274 279 281 282 281 281 283 283 281 283 283 281 280 280 280 279 274 267 266 260 256 254 252 256 256 257 253 245 242 241 240
195 203 226 241 250 260 265 271 277 276 279 279 277 278 278 278 279 282 284 283 281 282 282 280 278 278 279 279 277 272 268 265 260 253 249 250 248 249 250 248 243 240 239
212 218 226 239 251 264 270 270 274 278 278 279 278 275 278 280 282 283 284 285 284 283 279 280 280 278 278 273 269 269 270 267 266 260 252 248 247 246 245 243 238 233 232
224 229 233 239 247 252 260 266 270 274 274 273 274 279 283 285 285 285 287 288 288 287 284 280 279 280 277 273 272 273 273 270 268 267 261 253 255 256 253 248 241 227 224
224 227 231 234 240 244 246 253 261 272 274 272 276 281 283 286 287 291 292 290 288 287 287 283 279 278 275 272 274 275 274 269 267 265 262 261 256 246 244 249 251 243 230
222 227 229 233 239 239 243 251 262 268 272 275 278 282 285 287 291 292 291 288 287 287 286 285 283 280 279 276 275 277 276 268 265 261 258 255 255 248 240 244 248 249 242
214 220 221 221 229 238 242 250 263 268 272 273 274 279 282 288 293 293 290 290 290 291 288 285 283 281 283 280 278 279 276 269 268 265 260 253 252 244 234 237 242 245 246
218 218 216 213 229 240 232 238 257 265 266 266 269 276 280 284 288 288 288 288 288 289 291 288 283 279 281 282 282 282 269 268 271 271 265 256 250 244 233 233 232 236 239
217 211 204 212 227 229 213 236 252 257 259 264 272 279 281 283 283 283 283 288 291 293 292 290 289 283 277 282 283 284 264 260 269 272 271 263 251 246 238 228 229 229 227
213 202 203 223 232 219 210 236 250 253 259 263 272 279 284 286 289 286 291 291 290 294 296 296 297 291 282 277 283 285 276 262 260 265 268 267 262 255 244 231 229 225 220
208 200 203 223 235 223 211 232 248 249 251 262 272 281 290 290 285 284 290 297 295 293 296 296 295 297 295 285 277 283 288 282 265 262 264 270 269 261 252 235 225 216 213
208 199 199 218 235 232 224 232 246 244 243 261 277 286 293 297 297 291 284 286 290 294 297 296 294 294 295 292 289 291 294 292 285 282 280 277 272 255 243 234 220 214 209
205 194 201 217 231 232 235 239 239 228 240 259 275 286 288 289 297 298 286 281 275 264 271 282 281 285 291 286 276 279 281 278 280 293 283 271 265 258 246 230 214 207 204
197 201 210 220 231 231 238 242 231 218 232 260 275 281 289 293 295 303 309 283 268 276 268 255 257 263 257 272 282 278 273 272 274 266 262 266 260 256 246 234 220 209 205
Height
1530 1530 1531 1533 1534 1535 1536 1537 1537 1538 1538 1537 1536 1535 1533 1531 1529 1527 1525 1523 1522 1520 1519 1518 1517 1517 1516 1515 1514 1513 1512 1510 1508 1506 1504 1503 1502 1501 1500 1501 1501 1502 1505
1529 1530 1530 1532 1533 1534 1535 1536 1536 1536 1536 1535 1534 1532 1530 1528 1526 1524 1522 1520 1518 1517 1516 1515 1514 1513 1513 1512 1511 1510 1509 1508 1506 1504 1502 1500 1499 1497 1496 1496 1495 1496 1498
1527 1528 1529 1530 1532 1533 1534 1534 1535 1534 1534 1533 1531 1530 1528 1526 1524 1521 1519 1517 1515 1514 1513 1511 1510 1510 1509 1509 1508 1507 1506 1505 1505 1503 1502 1500 1497 1495 1493 1492 1491 1491 1492
1526 1527 1528 1529 1530 1531 1532 1532 1532 1532 1531 1530 1529 1527 1525 1523 1521 1518 1516 1514 1513 1511 1509 1508 1507 1506 1505 1505 1504 1504 1503 1503 1502 1501 1500 1500 1498 1496 1491 1490 1489 1488 1489
1523 1524 1525 1527 1528 1529 1529 1530 1530 1529 1528 1527 1526 1524 1522 1520 1518 1516 1513 1511 1510 1508 1506 1504 1503 1502 1501 1501 1501 1500 1500 1499 1499 1498 1497 1496 1495 1494 1492 1488 1486 1485 1485
1520 1521 1523 1524 1525 1526 1527 1527 1527 1526 1525 1524 1523 1521 1519 1517 1515 1512 1510 1508 1506 1504 1502 1501 1499 1498 1497 1497 1496 1496 1496 1495 1495 1494 1494 1493 1492 1491 1490 1487 1484 1482 1481
1518 1519 1520 1522 1523 1524 1524 1524 1524 1523 1522 1521 1519 1518 1516 1514 1511 1509 1507 1504 1502 1500 1498 1497 1495 1494 1493 1492 1492 1491 1491 1491 1491 1490 1490 1490 1489 1488 1487 1486 1483 1481 1479
1516 1517 1519 1520 1521 1522 1522 1522 1521 1520 1519 1518 1516 1514 1513 1510 1508 1506 1504 1501 1498 1496 1494 1493 1491 1490 1489 1488 1487 1486 1486 1486 1486 1486 1485 1485 1485 1485 1484 1483 1482 1479 1477
1514 1515 1517 1518 1519 1520 1519 1519 1518 1517 1516 1514 1513 1511 1509 1507 1505 1503 1500 1498 1495 1493 1491 1489 1487 1486 1484 1483 1482 1481 1481 1480 1480 1480 1480 1480 1480 1480 1480 1480 1480 1479 1477
1512 1514 1516 1517 1517 1517 1517 1516 1515 1514 1513 1511 1510 1508 1506 1504 1502 1499 1497 1494 1491 1489 1487 1485 1483 1481 1480 1478 1477 1476 1475 1475 1474 1474 1474 1474 1475 1475 1475 1476 1476 1476 1475
1511 1513 1514 1515 1516 1515 1515 1514 1513 1511 1510 1508 1506 1504 1502 1500 1498 1495 1492 1490 1487 1485 1482 1480 1478 1476 1474 1473 1472 1470 1469 1469 1468 1468 1468 1468 1469 1469 1470 1471 1471 1471 1471
1510 1512 1513 1513 1513 1513 1512 1511 1510 1508 1506 1504 1503 1501 1498 1496 1493 1491 1488 1485 1482 1480 1477 1475 1472 1471 1469 1468 1466 1465 1464 1463 1462 1462 1462 1462 1463 1463 1464 1465 1466 1467 1467
1508 1510 1511 1511 1511 1510 1509 1508 1506 1504 1503 1501 1499 1496 1494 1491 1489 1486 1483 1480 1477 1474 1472 1469 1467 1465 1463 1462 1460 1459 1458 1457 1456 1456 1456 1456 1456 1456 1457 1459 1460 1461 1462
1506 1507 1508 1508 1508 1507 1506 1504 1503 1501 1499 1497 1494 1492 1490 1487 1484 1481 1478 1475 1472 1469 1466 1464 1462 1460 1458 1456 1454 1453 1452 1451 1450 1450 1449 1449 1449 1450 1451 1452 1454 1455 1457
1503 1505 1505 1505 1505 1504 1502 1501 1499 1497 1495 1493 1490 1488 1485 1482 1479 1476 1473 1469 1466 1463 1461 1458 1456 1454 1452 1450 1449 1447 1446 1444 1444 1443 1443 1443 1443 1443 1444 1445 1447 1449 1451
1501 1502 1502 1502 1501 1500 1499 1497 1495 1493 1491 1489 1486 1483 1481 1477 1474 1471 1467 1464 1461 1458 1455 1453 1451 1449 1447 1445 1443 1442 1439 1438 1437 1436 1436 1436 1436 1436 1437 1439 1440 1442 1444
1498 1499 1499 1498 1498 1496 1495 1493 1491 1489 1487 1484 1482 1479 1476 1472 1469 1466 1462 1458 1455 1452 1450 1448 1446 1443 1441 1440 1438 1436 1434 1432 1430 1429 1428 1428 1428 1429 1430 1431 1433 1435 1437
1494 1495 1495 1494 1494 1492 1491 1489 1487 1485 1483 1480 1478 1475 1471 1468 1464 1461 1457 1454 1451 1448 1445 1443 1441 1438 1436 1434 1432 1430 1427 1425 1423 1422 1421 1420 1420 1421 1422 1423 1425 1427 1430
1490 1491 1491 1490 1490 1488 1487 1485 1483 1481 1479 1476 1473 1471 1467 1463 1460 1456 1453 1450 1447 1444 1441 1438 1435 1433 1430 1428 1426 1423 1420 1418 1416 1415 1414 1413 1412 1413 1414 1415 1417 1419 1422
1486 1486 1487 1486 1485 1485 1483 1481 1479 1477 1474 1472 1469 1466 1462 1459 1455 1452 1449 1446 1443 1439 1436 1433 1430 1428 1425 1422 1420 1417 1414 1411 1410 1408 1407 1406 1405 1405 1406 1407 1409 1411 1415
1481 1482 1482 1482 1481 1481 1479 1477 1475 1473 1470 1468 1465 1461 1458 1454 1451 1448 1445 1442 1438 1435 1432 1428 1426 1423 1420 1417 1414 1411 1408 1405 1403 1401 1400 1399 1398 1398 1399 1400 1402 1404 1409
1477 1478 1478 1478 1478 1476 1475 1473 1471 1469 1466 1463 1460 1457 1453 1450 1447 1443 1440 1438 1434 1431 1427 1424 1421 1418 1415 1411 1408 1406 1403 1400 1398 1396 1395 1393 1392 1392 1392 1394 1396 1399 1403
1472 1473 1473 1473 1473 1472 1471 1468 1467 1464 1462 1459 1456 1452 1449 1446 1443 1439 1436 1433 1430 1427 1423 1419 1415 1412 1410 1406 1403 1401 1398 1396 1394 1392 1390 1389 1388 1387 1387 1389 1391 1394 1396
1467 1468 1469 1468 1468 1468 1466 1465 1463 1460 1457 1455 1452 1448 1445 1442 1439 1436 1433 1429 1426 1422 1419 1415 1411 1408 1405 1402 1399 1397 1394 1392 1390 1389 1387 1386 1384 1384 1383 1384 1386 1388 1390
1462 1464 1464 1464 1464 1464 1462 1461 1458 1456 1453 1450 1447 1444 1440 1437 1434 1431 1429 1425 1422 1419 1415 1411 1408 1404 1401 1398 1395 1393 1391 1389 1387 1385 1384 1383 1382 1381 1380 1380 1382 1384 1386
1458 1459 1460 1460 1460 1459 1458 1456 1454 1452 1449 1446 1443 1439 1436 1433 1430 1427 1424 1422 1419 1415 1412 1408 1405 1401 1398 1394 1392 1389 1387 1385 1384 1382 1381 1380 1379 1378 1378 1378 1378 1380 1382